Location: Unspecified
(48.8656°N, 0.0000°E)
Time: 17:05:16
(UTC+00:00)

SR - Pass Details

Date: 04 July 2019
Orbit: 580 x 876 km, 66.7° (Epoch: 19 July)

Event Time Altitude Azimuth Distance (km) Brightness Sun altitude
Rises 10:18:39 0° 315° (NW) 3,077 ? 56.7°
Reaches altitude 10° 10:21:13 10° 303° (WNW) 2,206 ? 57.0°
Maximum altitude 10:25:23 26° 248° (WSW) 1,443 ? 57.5°
Drops below altitude 10° 10:29:48 10° 192° (SSW) 2,355 ? 58.0°
Sets 10:32:38 0° 181° (S) 3,328 ? 58.3°
